OneWeb SL0435

operational
NORAD ID: 51632 Int'l Des: 2022-012 Owner: ONEWEBN Country: UK Constellation: oneweb
LEOCIRCULARPOLARONEWEB_TYPE

About OneWeb SL0435

Description loading...

Live Position

Loading 3D Globe...

Upcoming Passes

Altitude History

Altitude vs Time

uPlot chart will show altitude changes over time

Two-Line Element Set

1 51632U 22012L 26034.11181125 -.00000615 00000-0 -17991-2 0 9992
2 51632 87.8752 63.0011 0001417 93.7394 266.3895 13.10374995191759
Epoch: Feb 3, 2026 • Age: 6 hours

Current Status

Altitude 1224.0 km
Velocity 7.24 km/s
Sub-Earth Point 4.53°N, 26.88°W
Launch Date Feb 10, 2022
Age 3.9 years
Type internet

Technical Details

Classification Payload
Mass 148.00 kg
Dry Mass 140.00 kg
Total Mass 148.00 kg
Length 1.30 m
Diameter 1.00 m
Span 5.00 m
Shape Trapezoid+2 pan
Manufacturer ONEWUS
Bus Type ARROW
Phase Status In Orbit
Owner/State ONEWEBN/UK

Large Constellations

Loading constellations...